• In Belgien
  • Länderverzeichnis
  • Für 7 Tage
  • Wassertemperatur
  • Satellitenkarten
  • Wetterkarte
  • Widgets
  • user-avatar
    Anmelden

    Stündliche Wetter Hrasdan

    Heute, 24 November, Freitag

    Zeit Temperatur Niederschläge Wind Luftdruck Luftfeuchtigkeit
    00:00 -6°C° 0,1 mm 1 m/S 607 mmHg 78%
    01:00 -7°C° 0 mm 1 m/S 607 mmHg 78%
    02:00 -7°C° 0 mm 1 m/S 607 mmHg 78%
    03:00 -7°C° 0 mm 1 m/S 607 mmHg 78%
    04:00 -7°C° 0 mm 1 m/S 607 mmHg 78%
    05:00 -7°C° 0 mm 1 m/S 607 mmHg 77%
    06:00 -8°C° 0 mm 1 m/S 608 mmHg 77%
    07:00 -7°C° 0,1 mm 1 m/S 608 mmHg 74%
    08:00 -6°C° 0,1 mm 1 m/S 608 mmHg 71%
    09:00 -6°C° 0,1 mm 1 m/S 609 mmHg 69%
    10:00 -4°C° 0 mm 1 m/S 609 mmHg 65%
    11:00 -5°C° 0 mm 2 m/S 609 mmHg 61%
    12:00 -5°C° 0 mm 2 m/S 609 mmHg 58%
    13:00 -5°C° 0 mm 2 m/S 609 mmHg 58%
    14:00 -5°C° 0 mm 2 m/S 609 mmHg 58%
    15:00 -5°C° 0 mm 2 m/S 609 mmHg 58%
    16:00 -4°C° 0 mm 1 m/S 609 mmHg 61%
    17:00 -6°C° 0 mm 1 m/S 609 mmHg 64%
    18:00 -7°C° 0 mm 1 m/S 609 mmHg 68%
    19:00 -7°C° 0 mm 1 m/S 609 mmHg 67%
    20:00 -7°C° 0 mm 1 m/S 610 mmHg 67%
    21:00 -8°C° 0 mm 2 m/S 610 mmHg 66%
    22:00 -9°C° 0 mm 2 m/S 610 mmHg 66%
    23:00 -9°C° 0 mm 2 m/S 610 mmHg 65%

    Morgen, 25 November, Samstag

    Zeit Temperatur Niederschläge Wind Luftdruck Luftfeuchtigkeit
    00:00 -9°C° 0 mm 2 m/S 610 mmHg 64%
    01:00 -9°C° 0 mm 2 m/S 610 mmHg 64%
    02:00 -9°C° 0 mm 2 m/S 610 mmHg 64%
    03:00 -9°C° 0 mm 2 m/S 611 mmHg 64%
    04:00 -9°C° 0 mm 2 m/S 611 mmHg 66%
    05:00 -9°C° 0 mm 2 m/S 611 mmHg 67%
    06:00 -9°C° 0 mm 2 m/S 612 mmHg 69%
    07:00 -8°C° 0 mm 2 m/S 612 mmHg 67%
    08:00 -8°C° 0 mm 2 m/S 613 mmHg 66%
    09:00 -7°C° 0 mm 2 m/S 614 mmHg 64%
    10:00 -6°C° 0 mm 2 m/S 614 mmHg 60%
    11:00 -5°C° 0 mm 2 m/S 614 mmHg 56%
    12:00 -5°C° 0 mm 3 m/S 614 mmHg 52%
    13:00 -4°C° 0 mm 2 m/S 614 mmHg 52%
    14:00 -4°C° 0 mm 2 m/S 614 mmHg 52%
    15:00 -4°C° 0 mm 2 m/S 614 mmHg 52%
    16:00 -6°C° 0 mm 2 m/S 614 mmHg 55%
    17:00 -7°C° 0 mm 2 m/S 614 mmHg 57%
    18:00 -8°C° 0 mm 2 m/S 614 mmHg 60%
    19:00 -8°C° 0 mm 2 m/S 614 mmHg 60%
    20:00 -8°C° 0 mm 2 m/S 614 mmHg 59%
    21:00 -9°C° 0 mm 2 m/S 614 mmHg 59%
    22:00 -9°C° 0 mm 2 m/S 615 mmHg 59%
    23:00 -9°C° 0 mm 2 m/S 615 mmHg 59%

    übermorgen, 26 November, Sonntag

    Zeit Temperatur Niederschläge Wind Luftdruck Luftfeuchtigkeit
    00:00 -9°C° 0 mm 2 m/S 615 mmHg 59%
    01:00 -9°C° 0 mm 2 m/S 615 mmHg 60%
    02:00 -9°C° 0 mm 2 m/S 615 mmHg 60%
    03:00 -9°C° 0 mm 2 m/S 614 mmHg 61%
    04:00 -8°C° 0 mm 1 m/S 614 mmHg 62%
    05:00 -8°C° 0 mm 1 m/S 614 mmHg 63%
    06:00 -8°C° 0 mm 1 m/S 614 mmHg 63%
    07:00 -7°C° 0 mm 1 m/S 615 mmHg 61%
    08:00 -6°C° 0 mm 1 m/S 615 mmHg 58%
    09:00 -3°C° 0 mm 1 m/S 616 mmHg 56%
    10:00 -4°C° 0 mm 2 m/S 616 mmHg 52%
    11:00 -3°C° 0 mm 2 m/S 615 mmHg 48%
    12:00 -2°C° 0 mm 2 m/S 615 mmHg 44%
    13:00 -2°C° 0 mm 2 m/S 615 mmHg 44%
    14:00 -2°C° 0 mm 2 m/S 614 mmHg 45%
    15:00 -2°C° 0 mm 2 m/S 614 mmHg 45%
    16:00 -3°C° 0 mm 2 m/S 614 mmHg 46%
    17:00 -5°C° 0 mm 2 m/S 613 mmHg 48%
    18:00 -6°C° 0 mm 2 m/S 613 mmHg 50%
    19:00 -6°C° 0 mm 2 m/S 613 mmHg 49%
    20:00 -6°C° 0 mm 2 m/S 613 mmHg 48%
    21:00 -6°C° 0 mm 2 m/S 613 mmHg 47%
    22:00 -6°C° 0 mm 2 m/S 613 mmHg 48%
    23:00 -6°C° 0 mm 2 m/S 613 mmHg 49%

    27 November, Montag

    Zeit Temperatur Niederschläge Wind Luftdruck Luftfeuchtigkeit
    00:00 -6°C° 0 mm 2 m/S 613 mmHg 50%
    01:00 -6°C° 0 mm 2 m/S 613 mmHg 51%
    02:00 -7°C° 0 mm 2 m/S 612 mmHg 52%
    03:00 -7°C° 0 mm 2 m/S 612 mmHg 54%
    04:00 -7°C° 0 mm 2 m/S 612 mmHg 54%
    05:00 -7°C° 0 mm 2 m/S 612 mmHg 55%
    06:00 -7°C° 0 mm 2 m/S 612 mmHg 55%
    07:00 -5°C° 0 mm 2 m/S 612 mmHg 54%
    08:00 -4°C° 0 mm 2 m/S 612 mmHg 52%
    09:00 -3°C° 0 mm 2 m/S 613 mmHg 51%
    10:00 -2°C° 0 mm 2 m/S 613 mmHg 50%
    11:00 -1°C° 0 mm 2 m/S 613 mmHg 48%
    12:00 +2°C° 0 mm 2 m/S 613 mmHg 47%
    13:00 +2°C° 0 mm 2 m/S 612 mmHg 47%
    14:00 +1°C° 0 mm 2 m/S 612 mmHg 48%
    15:00 +1°C° 0 mm 2 m/S 611 mmHg 49%
    16:00 -1°C° 0 mm 2 m/S 611 mmHg 51%
    17:00 -3°C° 0 mm 2 m/S 611 mmHg 54%
    18:00 -4°C° 0 mm 2 m/S 611 mmHg 56%
    19:00 -4°C° 0 mm 2 m/S 611 mmHg 57%
    20:00 -4°C° 0 mm 2 m/S 611 mmHg 57%
    21:00 -4°C° 0 mm 2 m/S 611 mmHg 58%
    22:00 -5°C° 0 mm 2 m/S 611 mmHg 59%
    23:00 -5°C° 0 mm 2 m/S 611 mmHg 60%

    28 November, Dienstag

    Zeit Temperatur Niederschläge Wind Luftdruck Luftfeuchtigkeit
    00:00 -5°C° 0 mm 2 m/S 611 mmHg 61%
    01:00 -5°C° 0 mm 2 m/S 611 mmHg 62%
    02:00 -5°C° 0 mm 2 m/S 610 mmHg 63%
    03:00 -5°C° 0 mm 2 m/S 610 mmHg 64%
    04:00 -5°C° 0 mm 2 m/S 610 mmHg 65%
    05:00 -5°C° 0 mm 2 m/S 610 mmHg 67%
    06:00 -5°C° 0 mm 2 m/S 610 mmHg 68%
    07:00 -4°C° 0 mm 2 m/S 611 mmHg 67%
    08:00 -3°C° 0 mm 2 m/S 611 mmHg 65%
    09:00 -2°C° 0 mm 3 m/S 611 mmHg 63%
    10:00 -1°C° 0 mm 3 m/S 611 mmHg 61%
    11:00 0°C° 0 mm 3 m/S 611 mmHg 60%
    12:00 +2°C° 0 mm 3 m/S 611 mmHg 58%
    13:00 +2°C° 0 mm 3 m/S 611 mmHg 58%
    14:00 +2°C° 0 mm 3 m/S 610 mmHg 59%
    15:00 +1°C° 0 mm 3 m/S 610 mmHg 60%
    16:00 0°C° 0 mm 3 m/S 610 mmHg 63%
    17:00 -1°C° 0 mm 3 m/S 610 mmHg 67%
    18:00 -2°C° 0 mm 3 m/S 610 mmHg 70%
    19:00 -1°C° 0,2 mm 3 m/S 610 mmHg 71%
    20:00 -1°C° 0,2 mm 3 m/S 610 mmHg 73%
    21:00 -1°C° 0,2 mm 3 m/S 610 mmHg 74%
    22:00 -1°C° 0,1 mm 3 m/S 610 mmHg 75%
    23:00 -1°C° 0,1 mm 3 m/S 610 mmHg 77%

    29 November, Mittwoch

    Zeit Temperatur Niederschläge Wind Luftdruck Luftfeuchtigkeit
    00:00 -1°C° 0,1 mm 2 m/S 610 mmHg 78%
    01:00 -1°C° 0,1 mm 2 m/S 610 mmHg 78%
    02:00 -1°C° 0,1 mm 2 m/S 610 mmHg 79%
    03:00 -1°C° 0,1 mm 2 m/S 610 mmHg 79%
    04:00 -1°C° 0,1 mm 2 m/S 610 mmHg 79%
    05:00 -1°C° 0,1 mm 3 m/S 610 mmHg 80%
    06:00 -1°C° 0,1 mm 3 m/S 610 mmHg 80%
    07:00 -1°C° 0,2 mm 3 m/S 610 mmHg 78%
    08:00 0°C° 0,2 mm 3 m/S 610 mmHg 77%
    09:00 +1°C° 0,2 mm 3 m/S 610 mmHg 75%
    10:00 +1°C° 0,2 mm 3 m/S 610 mmHg 74%
    11:00 +2°C° 0,2 mm 3 m/S 610 mmHg 72%
    12:00 +3°C° 0,2 mm 3 m/S 610 mmHg 71%
    13:00 +2°C° 0,3 mm 3 m/S 609 mmHg 72%
    14:00 +3°C° 0,3 mm 2 m/S 609 mmHg 73%
    15:00 +3°C° 0,3 mm 2 m/S 609 mmHg 73%
    16:00 +3°C° 0,3 mm 2 m/S 609 mmHg 76%
    17:00 +2°C° 0,3 mm 2 m/S 609 mmHg 78%
    18:00 +1°C° 0,3 mm 2 m/S 609 mmHg 80%
    19:00 +1°C° 0,2 mm 2 m/S 609 mmHg 80%
    20:00 +1°C° 0,2 mm 2 m/S 609 mmHg 80%
    21:00 +1°C° 0,2 mm 2 m/S 609 mmHg 80%
    22:00 +1°C° 0,2 mm 2 m/S 609 mmHg 80%
    23:00 +1°C° 0,2 mm 2 m/S 609 mmHg 81%
    Mehr zeigen